Regional Weather Roundup
Issued by NWS

Home | Current Version | Previous Version | Text Only | Print | Product List | Glossary Off
Versions: 1 2 3 4 5 6 7 8 9 10 11 12 13 14 15 16 17 18 19 20 21 22 23 24 25 26 27 28 29 30 31 32 33 34 35 36 37 38 39 40 41 42 43 44 45 46 47 48 49 50

000
ASUS43 KDMX 271904
RWRIA

WEATHER ROUNDUP FOR IOWA
NATIONAL WEATHER SERVICE DES MOINES IA
  ISSUED BY NWS QUAD CITIES IA IL
100 PM CST TUE JAN 27 2015

NOTE: "FAIR" INDICATES FEW OR NO CLOUDS BELOW 12,000 FEET WITH NO
SIGNIFICANT WEATHER AND/OR OBSTRUCTIONS TO VISIBILITY.

* - THESE STATIONS ARE NOT NWS STATIONS...THUS NOT UNDER NWS
QUALITY CONTROL.  THEY ALSO DO NOT REPORT WEATHER SUCH
AS PRECIPITATION OR FOG.

IAZ001>003-012>014-020>022-031>034-043>046-272000-
   NORTHWEST IOWA

CITY           SKY/WX    TMP DP  RH WIND       PRES   REMARKS
CARROLL *      SUNNY     43  34  70 SE9       30.11F WCI  37
CHEROKEE *     CLEAR     41  35  79 SE9       30.10F WCI  35
DENNISON *     SUNNY     45  36  70 S9        30.08F WCI  40
LE MARS *      MOSUNNY   39  36  87 SE10      30.09F WCI  32
ORANGE CITY *  MOSUNNY   39  34  81 SE8       30.07F WCI  34
SIOUX CITY     SUNNY     45  35  68 SE12      30.08F WCI  39
SPENCER        MOSUNNY   40  32  73 SE13      30.10F WCI  32
$$

IAZ055>058-069>071-079>083-090>094-272000-
   SOUTHWEST IOWA

CITY           SKY/WX    TMP DP  RH WIND       PRES   REMARKS
ATLANTIC *     SUNNY     46  34  61 SE9       30.10F
AUDUBON *      SUNNY     46  34  61 S10       30.12S
CLARINDA *     SUNNY     48  32  53 VRB7      30.13F
COUNCIL BLFS * SUNNY     48  34  57 S12       30.08F
CRESTON *      SUNNY     45  32  61 SE8       30.12F
HARLAN *       SUNNY     45  37  76 SE9       30.13F WCI  40
LAMONI         SUNNY     45  31  58 S5        30.13F
RED OAK *      SUNNY     48  32  53 S12       30.11F
$$

IAZ047>049-059>061-072>074-084-272000-
   CENTRAL IOWA

CITY           SKY/WX    TMP DP  RH WIND       PRES   REMARKS
AMES           MOSUNNY   41  31  67 E7        30.15F WCI  36
ANKENY *       SUNNY     41  30  65 VRB7      30.16S WCI  36
BOONE *        FAIR      41  34  75 SE9       30.13F WCI  35
CHARITON *     SUNNY     43  32  65 CALM      30.14F
DES MOINES     MOSUNNY   43  30  60 E6        30.15F WCI  39
GRINNELL *     CLOUDY    36  30  79 SE3       30.17F
KNOXVILLE *    MOSUNNY   43  30  61 SE5G15    30.14F
MARSHALLTOWN   CLOUDY    37  30  75 E6        30.15F WCI  32
PELLA *        CLOUDY    41  32  70 SE6       30.18S WCI  37
PERRY *          N/A     42  33  69 SE8       30.13F WCI  38
$$

IAZ004>006-015-016-023>025-035-036-272000-
   NORTH CENTRAL IOWA

CITY           SKY/WX    TMP DP  RH WIND       PRES   REMARKS
ALGONA *       MOSUNNY   37  34  87 SE10      30.13F WCI  30
CLARION *      CLOUDY    37  34  87 SE6       30.15S WCI  33
ESTHERVILLE    PTSUNNY   36  32  85 S13       30.10F WCI  27
FORT DODGE *   SUNNY     39  32  75 SE7       30.14F WCI  34
MASON CITY     CLOUDY    34  29  82 SE7       30.16S WCI  28
WEBSTER CITY * MOSUNNY   39  36  87 SE8       30.13F WCI  34
IOWA FALLS *   CLOUDY    37  31  78 SE6       30.16S WCI  33
$$

IAZ007>011-017>019-026>030-037>042-050>054-066-272000-
   NORTHEAST IOWA

CITY           SKY/WX    TMP DP  RH WIND       PRES   REMARKS
CEDAR RAPIDS   CLOUDY    32  26  78 E3        30.17S
CHARLES CITY * CLOUDY    34  30  86 E7        30.17S WCI  28
CLINTON *      CLOUDY    27  21  80 E6        30.22S WCI  20
DECORAH *      CLOUDY    28  23  80 CALM      30.16F
DUBUQUE        CLOUDY    27  21  78 NE7       30.18S WCI  19
MONTICELLO *   CLOUDY    30  25  80 CALM      30.19R
OELWEIN *      CLOUDY    30  25  80 N5        30.18R WCI  25
WATERLOO       CLOUDY    33  28  81 E8        30.18S WCI  26
$$

IAZ064-065-067-068-078-272000-
   EAST CENTRAL IOWA

CITY           SKY/WX    TMP DP  RH WIND       PRES   REMARKS
DAVENPORT      CLOUDY    28  21  75 NE8       30.19F WCI  20
IOWA CITY      CLOUDY    33  26  75 E6        30.20S WCI  28
MT. PLEASANT * CLOUDY    33  27  77 CALM      30.18F
MUSCATINE *    CLOUDY    32  27  80 NE9       30.21R WCI  24
QUAD CITIES    CLOUDY    30  22  72 N6        30.19F WCI  24
$$

IAZ062-063-075>077-085>089-095>099-272000-
   SOUTHEAST IOWA

CITY           SKY/WX    TMP DP  RH WIND       PRES   REMARKS
BURLINGTON     CLOUDY    33  27  78 NE7       30.18F WCI  27
FAIRFIELD *    CLOUDY    36  27  69 CALM      30.17F
FORT MADISON * CLOUDY    36  28  75 NE6       30.18F WCI  31
KEOKUK *       CLOUDY    37  30  75 CALM      30.17S
OTTUMWA        CLOUDY    37  29  72 E7        30.16F WCI  32
WASHINGTON *   CLOUDY    34  30  86 NE5       30.18F WCI  30
$$

ABBREVIATIONS USED IN REMARKS
   TC - TEMPERATURES IN CELSIUS
  WCI - WIND CHILL INDEX
   HX - HEAT INDEX
  VSB - VISIBILITY
$$



USA.gov is the U.S. government's official web portal to all federal, state and local government web resources and services.